www.pogodaiklimat.ru

Погода и климат >> Архив погоды >> Таиланд >> Самутрудкан Агромет


ПОГОДА в Самутрудкан Агромете

  • Прогноз погоды в Самутрудкан Агромете
  • Монитор погоды в Самутрудкан Агромете

АРХИВ ПОГОДЫ в Самутрудкан Агромете

Время (UTC), дата Ветер
(напр.,м/с)
 
Видим.   Явления Облачность Т
(С)
Тd
(С)
f
(%)
Тe
(С)
Тes
(С)
Комфортность P
(гПа)
Po
(гПа)
Тmin
(С)
Tmax
(С)
R
(мм)
R24
(мм)
S
(см)
00 10.09 штиль 0 10 км 8/4 600 м
[Sc Ac trans Cs]
+27.0 +24.8 88 +39 +39 очень
душно
1009.1 1008.6 +26.6
03 10.09 ЮЗ 7 10 км 8/3 600 м
[Sc Ac trans Cs]
+29.6 +24.4 74 +42 +44 опасность
перегрева
1010.7 1010.3
06 10.09 ЮЗ 12 10 км 8/3 600 м
[Sc Ac trans Cs]
+30.7 +24.7 70 +43 +43 опасность
перегрева
1008.9 1008.5
09 10.09 ЮЗ 6 10 км 8/1 600 м
[Sc Ac trans Cs]
+29.5 +25.4 79 +43 +45 опасность
перегрева
1007.4 1006.9
12 10.09 ЮЗ 3 10 км 8/1 600 м
[Sc Ac trans Cs]
+28.9 +25.4 81 +42 +42 опасность
перегрева
1008.9 1008.5 +31.2
15 10.09 ЮЗ 5 7000 м дымка 10/3 600 м
[Sc Ac As Cs]
+29.0 +26.0 84 +44 +44 опасность
перегрева
1011.2 1010.7
18 10.09 ЮЗ 2 8000 м дымка 10/3 600 м
[Sc Ac trans Cs]
+28.6 +25.5 83 +42 +42 опасность
перегрева
1011.1 1010.6
21 10.09 штиль 0 8000 м дымка 10/3 600 м
[Sc Ac trans Cs]
+28.0 +25.1 84 +40 +40 очень
душно
1009.9 1009.5
00 11.09 ЮВ 3 10 км 9/3 600 м
[Sc Ac trans Cs]
+27.1 +25.4 90 +39 +40 очень
душно
1012.0 1011.6 +26.7
03 11.09 ЮЗ 7 10 км 8/3 600 м
[Cu med, cong Ac trans Cs]
+31.7 +24.1 64 +44 +45 опасность
перегрева
1013.9 1013.5
06 11.09 ЮЗ 8 10 км 8/1 600 м
[Cu med, cong Ac trans Cs]
+31.6 +24.0 64 +43 +45 опасность
перегрева
1011.7 1011.3
09 11.09 ЮЗ 6 10 км 9/3 600 м
[Cu med, cong Ac trans Cs]
+30.4 +23.9 68 +42 +43 опасность
перегрева
1009.8 1009.3
12 11.09 ЮЗ 6 10 км 8/1 600 м
[Cu med, cong Ac trans Cs]
+30.1 +24.8 73 +43 +43 опасность
перегрева
1010.1 1009.7 +32.7
15 11.09 ЮЗ 2 10 км 9/3 600 м
[Sc Ac und Cs]
+27.0 +21.8 73 +35 +35 очень
душно
1013.4 1013.0
18 11.09 штиль 0 10 км 9/3 600 м
[Sc Ac trans Cs]
+27.3 +24.0 82 +38 +38 очень
душно
1012.9 1012.4
21 11.09 штиль 0 10 км 8/1 600 м
[Sc Ac trans Cs]
+26.5 +24.3 88 +37 +37 очень
душно
1011.9 1011.4
00 12.09 ЮВ 2 10 км 10/3 600 м
[Sc Ac und Cs]
+26.4 +24.4 89 +37 +37 очень
душно
1012.0 1011.5 +26.2
03 12.09 ЮЗ 2 10 км 8/3 600 м
[Sc Ac trans Cs]
+30.5 +22.4 62 +40 +46 очень
душно
1013.4 1013.0
06 12.09 ЮЗ 8 10 км 5/3 600 м
[Cu med, cong Ac trans Cs]
+31.5 +22.8 60 +41 +44 опасность
перегрева
1011.5 1011.1
09 12.09 ЮЗ 4 10 км 4/3 600 м
[Cu hum Ac lent Cs]
+31.3 +23.3 63 +42 +45 опасность
перегрева
1008.8 1008.4
12 12.09 ЮЗ 5 10 км 8/3 600 м
[Sc Ac trans Cs]
+30.2 +24.2 70 +42 +42 опасность
перегрева
1009.3 1008.8 +32.0
15 12.09 штиль 0 10 км 6/3 600 м
[Sc Ac trans Cs]
+29.8 +24.4 73 +42 +42 опасность
перегрева
1012.2 1011.8
18 12.09 штиль 0 10 км 6/3 600 м
[Cu med, cong Ac trans Cs]
+29.0 +25.8 83 +43 +43 опасность
перегрева
1011.0 1010.6
21 12.09 штиль 0 10 км 6/3 600 м
[Cu med, cong Ac trans Cs]
+28.8 +25.1 80 +42 +42 опасность
перегрева
1010.2 1009.8
00 13.09 штиль 0 10 км 8/3 600 м
[Sc Ac trans Cs]
+27.2 +23.2 79 +37 +37 очень
душно
1010.6 1010.2 +27.2
03 13.09 ЮЗ 6 10 км 8/1 600 м
[Cu hum Ac trans Cs]
+32.0 +23.3 60 +43 +46 опасность
перегрева
1010.8 1010.4
06 13.09 ЮЗ 8 10 км 10/3 600 м
[Sc Ac und Cs]
+33.5 +23.9 57 +45 +46 опасность
перегрева
1008.6 1008.1
09 13.09 ЮЗ 10 10 км 8/3 600 м
[Sc Cs]
+33.2 +25.2 63 +47 +47 опасность
перегрева
1005.7 1005.2
12 13.09 ЮЗ 4 10 км в посл. час гроза {дождь} 10/3 600 м
[Sc Ac und Cs]
+28.3 +25.6 85 +42 +42 опасность
перегрева
1006.7 1006.2 +34.4 2
15 13.09 штиль 0 6000 м гроза, ливневой дождь 10/4 300 м
[Cb cap Ac und Cs]
+28.2 +25.6 86 +42 +42 опасность
перегрева
1008.8 1008.3 2
18 13.09 ЮЗ 4 10 км {гроза, дождь} 10/3 600 м
[Sc Ac As Cs]
+27.4 +24.4 84 +39 +39 очень
душно
1007.1 1006.6 1
21 13.09 ЮЗ 4 7000 м слаб. дождь 10/4 600 м
[Sc Ac As Cs]
+27.3 +23.0 77 +36 +36 очень
душно
1006.9 1006.5 0.0
00 14.09 ЮЗ 2 10 км {дождь} 10/3 600 м
[Sc Ac und Cs]
+26.6 +23.2 82 +36 +36 очень
душно
1007.9 1007.4 +26.4 0.1
03 14.09 ЮЗ 2 10 км {дождь} 9/4 600 м
[Sc Ac As Cs]
+29.2 +23.7 72 +40 +45 очень
душно
1009.3 1008.9 0.4
06 14.09 ЮЗ 5 10 км {дождь} 9/4 600 м
[Sc Ac As Cs]
+30.0 +24.3 72 +42 +46 опасность
перегрева
1007.3 1006.9 0.4
09 14.09 ЮЗ 5 10 км 8/3 600 м
[Sc Ac trans Cs]
+30.3 +24.9 73 +43 +45 опасность
перегрева
1005.1 1004.7
12 14.09 ЮЗ 3 10 км 8/4 600 м
[Sc Ac trans Cs]
+29.0 +24.7 78 +41 +41 опасность
перегрева
1006.7 1006.3 +30.5
15 14.09 штиль 0 6000 м слаб. дождь 8/4 600 м
[Sc Ac trans Cs]
+28.1 +24.8 82 +40 +40 очень
душно
1008.3 1007.9 2
18 14.09 штиль 0 10 км {дождь} 8/3 600 м
[Sc Ac trans Cs]
+27.8 +24.6 83 +39 +39 очень
душно
1007.1 1006.6 0.5
21 14.09 штиль 0 10 км 8/3 600 м
[Sc Ac trans Cs]
+27.5 +24.9 86 +39 +39 очень
душно
1006.1 1005.7
00 15.09 штиль 0 10 км 8/3 600 м
[Sc Ac trans Cs]
+26.2 +25.2 94 +38 +38 очень
душно
1007.7 1007.2 +26.2
03 15.09 ЮЗ 6 10 км 10/3 600 м
[Sc Cs]
+30.3 +25.2 74 +44 +47 опасность
перегрева
1008.4 1008.0
06 15.09 ЮЗ 4 10 км 8/3 600 м
[Cu med, cong Cs]
+32.0 +26.4 72 +48 +57 опасность
перегрева
1005.6 1005.1
09 15.09 ЮЗ 8 10 км 6/1 600 м
[Cu med, cong Cs]
+30.0 +24.1 71 +42 +43 опасность
перегрева
1004.4 1003.9
12 15.09 ЮЗ 6 10 км 8/3 600 м
[Cu med, cong Ac lent Cs]
+28.9 +24.6 78 +41 +41 опасность
перегрева
1005.3 1004.9 +32.5
15 15.09 ЮЗ 4 10 км 8/1 600 м
[Cu med, cong Ac lent Cs]
+29.0 +25.3 80 +42 +42 опасность
перегрева
1007.6 1007.2
18 15.09 ЮЗ 4 10 км {гроза} 10/3 600 м
[Sc Ac und Cs]
+26.4 +25.0 92 +38 +38 очень
душно
1007.4 1006.9 12
21 15.09 штиль 0 10 км 6/1 600 м
[Cu med, cong Ac lent Cs]
+26.0 +24.6 92 +37 +37 очень
душно
1005.9 1005.4
00 16.09 ЮВ 4 10 км 6/1 600 м
[Cu med, cong Ac trans Cs]
+26.2 +23.9 87 +36 +36 очень
душно
1007.1 1006.6 +25.5
03 16.09 ЮЗ 2 10 км 6/3 600 м
[Sc Ac trans Cs]
+30.5 +24.2 69 +42 +50 опасность
перегрева
1008.4 1008.0
06 16.09 ЮЗ 11 10 км 6/3 600 м
[Sc Ac trans Cs]
+31.7 +25.7 71 +47 +47 опасность
перегрева
1005.9 1005.5
09 16.09 ЮЗ 4 10 км {гроза, дождь} 8/3 600 м
[Sc Ac trans Cs]
+29.5 +24.5 75 +42 +44 опасность
перегрева
1004.3 1003.9 0.2
12 16.09 ЮЗ 4 10 км {гроза, дождь} 10/3 600 м
[Sc Ac und Cs]
+28.9 +24.9 79 +41 +41 опасность
перегрева
1005.2 1004.7 +32.6 0.2
15 16.09 ЮВ 3 10 км 10/3 600 м
[Sc Ac trans Cs]
+28.6 +24.1 77 +40 +40 очень
душно
1007.1 1006.7
18 16.09 штиль 0 10 км 10/3 600 м
[Sc Ac trans Cs]
+28.2 +24.0 78 +39 +39 очень
душно
1007.0 1006.5
21 16.09 штиль 0 10 км 10/3 600 м
[Sc Ac trans Cs]
+27.8 +23.7 78 +38 +38 очень
душно
1006.1 1005.7

 

Местоположение метеостанции Самутрудкан Агромет (Таиланд): широта 13.52 долгота 100.75 высота над уровнем моря 3 м.

В архиве по умолчанию представлена погода в Самутрудкан Агромете за последнюю неделю. Архивные данные за месяц целиком и за предыдущие месяцы, начиная с января 2011 года, Вы можете получить, выбрав интересующий диапазон дат из раскрывающегося списка и нажав кнопку "Ввод!".


*Определитесь, кто Вы:
робот инопланетянин человек

Внимание! Время в таблицах - всемирное. Для получения местного времени необходимо прибавить поправку, которая равна 7 ч.

Смотрите также архив погоды в соседних городах и на ближайших метеорологических станциях:

Погода в Аэропорту Суварнабхуми (Таиланд) (18 км)
Погода в Бангна Агромете (Таиланд) (22 км)
Погода в Бангкок Пилот (Таиланд) (22 км)
Погода в Бангкоке 2 (Таиланд) (28 км)
Погода в Чонбури (Таиланд) (30 км)
Погода в Ратбури (Таиланд) (30 км)
Погода в Бангкоке (Таиланд) (31 км)
Погода на Ко Сичан (Таиланд) (39 км)
Погода в Дон Муанг (Таиланд) (47 км)
Погода в Патхумтхани (Таиланд) (66 км)

Пояснения к столбцам:

Ветер - указаны скорость ветра в м/с - средняя за 10 мин, порывы в срок и между сроками (в фигурных скобках) и направление, откуда дует ветер: С - северный, СВ - северо-восточный, В - восточный, ЮВ - юго-восточный, Ю - южный, ЮЗ - юго-западный, З - западный, СЗ - северо-западный.
Видимость - горизонтальная дальность видимости в метрах или километрах. При видимости от 1 до 10 км при отсутствии осадков обычно наблюдается дымка, при ухудшении видимости до 1 км и менее - туман. В сухую погоду видимость может ухудшаться дымом, пылью или мглою.
Явления - указаны атмосферные явления, наблюдавшиеся в срок или в последний час перед сроком; фигурными скобками обозначены явления, наблюдавшиеся между сроками (за 1-3 часа до срока); квадратными скобками обозначены град или гололедные отложения с указанием их диаметра в мм.
Облачность - указаны через наклонную черту общая и нижняя облачность в баллах и высота нижней границы облаков в метрах; квадратными скобками обозначены формы облаков: Ci - перистые, Cs - перисто-слоистые, Cc - перисто-кучевые, Ac - высококучевые, As - высокослоистые, Sc - слоисто-кучевые, Ns - слоисто-дождевые, Cu - кучевые, Cb - кучево-дождевые. Подробнее классификацию облаков см. в Атласе облаков (PDF).
T - Температура воздуха - температура, измеренная на высоте 2 м над землей.
Td - Температура точки росы - температура, при понижении до которой содержащийся в воздухе водяной пар достигнет насыщения.
f - Относительная влажность воздуха - влажноcть воздуха, измеренная на высоте 2 м над землей.
Te - Эффективная температура - температура, которую ощущает одетый по сезону человек в тени. Характеристика душности погоды. При расчете учитывается влияние влажности воздуха и скорости ветра на теплоощущения человека.
Tes - Эффективная температура на солнце - температура, которую ощущает человек, с поправкой на солнечный нагрев. Характеристика знойности погоды. Зависит от высоты солнца над горизонтом, облачности и скорости ветра. Ночью, в пасмурную погоду, а также при ветре 12 м/с и более поправка равна нулю.
P - Атмосферное давление - приведенное к уровню моря атмосферное давление.
Po - Атмосферное давление - измеренное на уровне метеостанции атмосферное давление.
Tmin - Минимальная температура - минимум температуры воздуха на высоте 2 м над землей.
Tmax - Максимальная температура - максимум температуры воздуха на высоте 2 м над землей.
R - Количество осадков - Количество выпавших осадков за период времени, мм. При наведении курсора мыши на число - период времени, за который выпало указанное количество осадков.
R24 - Количество осадков - Количество выпавших осадков за 24 часа, мм.
S - Снежный покров - Высота снежного покрова, см. При наведении курсора мыши на число - состояние снежного покрова и степень покрытия местности в баллах.